Roseburg, OR

9:00 PM PDT on March 22, 2017 (GMT -0700)
Roseburg Regional

Weather History for KRBG - June, 2014

Change the Weather History Date:

Friday, June 6, 2014

  Actual Average Record
Temperature  
Mean Temperature 67 °F 62 °F  
Max Temperature 83 °F 74 °F 99 °F (2003)
Min Temperature 50 °F 50 °F 34 °F (1954)
Degree Days  
Heating Degree Days 0 4  
Month to date heating degree days 6 27  
Since 1 June heating degree days 6 27  
Since 1 July heating degree days 3743 4010  
Cooling Degree Days 2 1  
Month to date cooling degree days 7 6  
Year to date cooling degree days 52 26  
Since 1 June cooling degree days 7 6  
Growing Degree Days 16 (Base 50)    
Moisture  
Dew Point 37 °F    
Average Humidity 44    
Maximum Humidity 74    
Minimum Humidity 13    
Precipitation  
Precipitation 0.00 in 0.06 in 0.71 in (1958)
Month to date precipitation 0.00 0.45  
Year to date precipitation 15.46 18.08  
Sea Level Pressure  
Sea Level Pressure 30.03 in    
Wind  
Wind Speed 8 mph (North)    
Max Wind Speed 23 mph    
Max Gust Speed 29 mph    
Visibility 10 miles    
Events      
T = Trace of Precipitation, MM = Missing Value Source: NWS Daily Summary

Daily Weather History Graph

Daily Weather History Graph

Search for Another Location

Airport or City:

Trip Planner

Search our weather history database for the weather conditions in past years. The results will help you decide how hot, cold, wet, or windy it might be!

Date:

Astronomy

Jun. 06, 2014 Rise Set
Actual Time 5:34 AM PDT 8:50 PM PDT
Civil Twilight 4:59 AM PDT 9:25 PM PDT
Nautical Twilight 4:13 AM PDT 10:11 PM PDT
Astronomical Twilight 3:18 AM PDT 11:06 PM PDT
Moon 2:04 PM PDT (6/6) 1:39 AM PDT (6/6)
Length of Visible Light 16h 26m
Length of Day
15h 16m
First Quarter, 59% of the Moon is Illuminated
Jun 6
First Quarter
Jun 12
Full
Jun 19
Last Quarter
Jun 27
New
Jul 5
First Quarter

Hourly Weather History & Observations

Time (PDT) Temp. Dew Point Humidity Pressure Visibility Wind Dir Wind Speed Gust Speed Precip Events Conditions
12:53 AM 59.0 °F 42.1 °F 53% 30.03 in 10.0 mi Calm Calm - N/A   Clear
1:53 AM 59.0 °F 43.0 °F 55% 30.04 in 10.0 mi Calm Calm - N/A   Clear
2:53 AM 59.0 °F 42.1 °F 53% 30.04 in 10.0 mi Variable 3.5 mph - N/A   Clear
3:53 AM 57.0 °F 41.0 °F 55% 30.04 in 10.0 mi Calm Calm - N/A   Clear
4:53 AM 54.0 °F 41.0 °F 62% 30.06 in 10.0 mi Calm Calm - N/A   Clear
5:53 AM 50.0 °F 42.1 °F 74% 30.07 in 10.0 mi Calm Calm - N/A   Clear
6:53 AM 55.9 °F 39.0 °F 53% 30.07 in 10.0 mi NNE 3.5 mph - N/A   Clear
8:53 AM 62.1 °F 39.9 °F 44% 30.08 in 10.0 mi North 9.2 mph - N/A   Clear
9:53 AM 64.0 °F 42.1 °F 45% 30.07 in 10.0 mi NE 8.1 mph - N/A   Clear
10:53 AM 69.1 °F 44.1 °F 40% 30.05 in 10.0 mi NNE 6.9 mph - N/A   Clear
11:53 AM 73.0 °F 41.0 °F 31% 30.04 in 10.0 mi NNE 12.7 mph - N/A   Clear
12:53 PM 77.0 °F 37.0 °F 24% 30.04 in 10.0 mi NNE 17.3 mph - N/A   Clear
1:53 PM 79.0 °F 30.9 °F 17% 30.03 in 10.0 mi North 15.0 mph 25.3 mph N/A   Clear
2:53 PM 80.1 °F 27.0 °F 14% 30.02 in 10.0 mi North 20.7 mph 25.3 mph N/A   Clear
3:53 PM 81.0 °F 30.0 °F 16% 30.00 in 10.0 mi NNE 18.4 mph 26.5 mph N/A   Clear
4:53 PM 82.0 °F 28.9 °F 14% 29.98 in 10.0 mi NNE 16.1 mph - N/A   Clear
5:53 PM 82.0 °F 26.1 °F 13% 29.99 in 10.0 mi North 17.3 mph - N/A   Clear
6:53 PM 81.0 °F 28.0 °F 14% 29.99 in 10.0 mi North 12.7 mph - N/A   Clear
7:53 PM 78.1 °F 32.0 °F 19% 29.99 in 10.0 mi North 10.4 mph - N/A   Clear
8:53 PM 75.0 °F 36.0 °F 24% 30.00 in 10.0 mi North 3.5 mph - N/A   Clear
9:53 PM 70.0 °F 41.0 °F 35% 30.01 in 10.0 mi Calm Calm - N/A   Clear
10:53 PM 66.9 °F 43.0 °F 42% 30.04 in 10.0 mi Calm Calm - N/A   Clear
11:53 PM 66.9 °F 45.0 °F 45% 30.04 in 10.0 mi North 4.6 mph - N/A   Clear